This demonstration page uses our WeatherBlox Daily Observations layout. Learn more.

Left ArrowRight Arrow

30.21309, -93.2044

Hourly Observations for October 21, 2015

Temp ( °F °C ) Dew Point ( °F °C ) Humidity (%) Winds ( mph kmh ) Pressure ( in mb ) Visibility ( mi km ) Precip ( " mm )
12:15 am 00:15 Clear 70 20.9 67 19.5 92 92 E 6 9 30.15 1021 10 16 0.00 0.00
12:35 am 00:35 Clear 69 20.8 67 19.4 92 92 E 7 11 30.12 1020 10 16 0.00 0.00
12:55 am 00:55 Clear 69 20.5 67 19.2 92 92 E 8 13 30.12 1020 10 16 0.00 0.00
1:15 am 01:15 Clear 69 20.5 66 19.1 92 92 E 8 13 30.12 1020 10 16 0.00 0.00
1:35 am 01:35 Clear 68 20.1 66 19 93 93 E 7 11 30.12 1020 10 16 0.00 0.00
1:55 am 01:55 Clear 68 20 66 18.8 93 93 E 7 11 30.12 1020 10 16 0.00 0.00
2:15 am 02:15 Clear 67 19.5 65 18.6 95 95 E 7 11 30.12 1020 10 16 0.00 0.00
2:35 am 02:35 Clear 67 19.5 65 18.6 95 95 ENE 3 6 30.12 1020 10 16 0.00 0.00
2:55 am 02:55 Clear 67 19.5 65 18.6 95 95 ENE 6 9 30.12 1020 10 16 0.00 0.00
3:15 am 03:15 Clear 67 19.5 65 18.5 94 94 E 6 9 30.12 1020 10 16 0.00 0.00
3:35 am 03:35 Clear 67 19.3 65 18.4 95 95 E 7 11 30.12 1020 10 16 0.00 0.00
3:55 am 03:55 Clear 66 19 64 18 94 94 E 6 9 30.12 1020 10 16 0.00 0.00
4:15 am 04:15 Clear 66 19 65 18.1 95 95 E 6 9 30.12 1020 10 16 0.00 0.00
4:35 am 04:35 Clear 65 18.6 64 17.7 95 95 E 6 9 30.12 1020 10 16 0.00 0.00
4:55 am 04:55 Clear 65 18.2 64 17.5 96 96 E 6 9 30.12 1020 10 16 0.00 0.00
5:15 am 05:15 Clear 65 18.2 64 17.5 96 96 E 5 7 30.12 1020 10 16 0.00 0.00
6:00 am 06:00 Mostly Clear 64 18 63 17 94 94 E 12 19 30.15 1021 10 16 0.00 0.00
6:50 am 06:50 Mostly Clear 64 18 63 17 94 94 E 12 19 30.15 1021 10 16 0.00 0.00
7:55 am 07:55 Mostly Sunny 64 18 63 17 94 94 ENE 8 13 30.18 1022 10 16 0.00 0.00
11:45 am 11:45 Mostly Cloudy 81 27 68 20 66 66 ESE 16 26 30.18 1022 10 16 0.00 0.00
3:50 pm 15:50 Mostly Cloudy 84 29 64 18 51 51 ESE 10 17 30.09 1019 10 16 0.00 0.00
4:50 pm 16:50 Mostly Cloudy 81 27 66 19 62 62 SSE 13 20 30.09 1019 10 16 0.00 0.00
5:45 pm 17:45 Mostly Cloudy 81 27 64 18 58 58 SE 9 15 30.09 1019 10 16 0.00 0.00
6:50 pm 18:50 Mostly Cloudy 75 24 64 18 69 69 SE 9 15 30.12 1020 10 16 0.00 0.00
10:15 pm 22:15 Partly Cloudy 70 21 67 19.6 92 92 E 6 9 30.15 1021 10 16 0.00 0.00
10:35 pm 22:35 Cloudy 71 21.6 68 20.1 91 91 ESE 7 11 30.15 1021 10 16 0.00 0.00
10:55 pm 22:55 Cloudy 72 22 69 20.4 91 91 ESE 6 9 30.15 1021 10 16 0.00 0.00
11:15 pm 23:15 Mostly Cloudy 72 22.2 69 20.5 90 90 E 6 9 30.15 1021 10 16 0.00 0.00
11:35 pm 23:35 Partly Cloudy 72 22 69 20.5 91 91 E 6 9 30.15 1021 10 16 0.00 0.00
11:55 pm 23:55 Clear 72 22 69 20.3 90 90 E 6 9 30.15 1021 10 16 0.00 0.00

Powered by AerisWeather